This is the latest recevied weather packets stored in our database for station/object WX7EM. If no packets are shown the sender has not sent any weather packets the latest 10 day(s).
| Time | Temp. | Humidity | Pressure | Rain* | Wind** | Luminosity | Snow |
|---|---|---|---|---|---|---|---|
| 1778231713 | 11.11° C | 81% | 1017.4 hPa | 0 mm | - | 0 W/m² | - |
| 1778231410 | 11.11° C | 81% | 1017.2 hPa | 0 mm | - | 0 W/m² | - |
| 1778231108 | 11.11° C | 82% | 1017.2 hPa | 0 mm | - | 0 W/m² | - |
| 1778230804 | 10.56° C | 84% | 1017.3 hPa | 0 mm | - | 0 W/m² | - |
| 1778230501 | 11.11° C | 85% | 1017.2 hPa | 0 mm | - | 0 W/m² | - |
| 1778230198 | 11.11° C | 86% | 1017.2 hPa | 0 mm | - | 0 W/m² | - |
| 1778229894 | 11.11° C | 86% | 1016.9 hPa | 0 mm | - | 0 W/m² | - |
| 1778229592 | 11.11° C | 86% | 1016.9 hPa | 0 mm | - | 0 W/m² | - |
| 1778229289 | 11.11° C | 86% | 1016.9 hPa | 0 mm | - | 0 W/m² | - |
| 1778228984 | 11.67° C | 85% | 1016.9 hPa | 0 mm | - | 0 W/m² | - |
| 1778228682 | 11.67° C | 85% | 1017 hPa | 0 mm | - | 0 W/m² | - |
| 1778228379 | 11.67° C | 84% | 1016.8 hPa | 0 mm | - | 0 W/m² | - |
| 1778228076 | 11.67° C | 84% | 1017 hPa | 0 mm | - | 0 W/m² | - |
| 1778227772 | 11.67° C | 83% | 1017 hPa | 0 mm | - | 0 W/m² | - |
| 1778227470 | 11.67° C | 82% | 1016.9 hPa | 0 mm | - | 0 W/m² | - |
| 1778227167 | 11.67° C | 83% | 1016.9 hPa | 0 mm | - | 0 W/m² | - |
| 1778226864 | 11.67° C | 82% | 1016.8 hPa | 0 mm | - | 0 W/m² | - |
| 1778226562 | 12.22° C | 81% | 1016.7 hPa | 0 mm | - | 0 W/m² | - |
| 1778226259 | 11.67° C | 81% | 1016.6 hPa | 0 mm | - | 0 W/m² | - |
| 1778225955 | 11.67° C | 82% | 1016.8 hPa | 0 mm | - | 0 W/m² | - |
| 1778225653 | 12.22° C | 81% | 1016.6 hPa | 0 mm | - | 0 W/m² | - |
| 1778225350 | 12.22° C | 80% | 1016.6 hPa | 0 mm | - | 0 W/m² | - |
| 1778225046 | 12.22° C | 79% | 1016.6 hPa | 0 mm | - | 0 W/m² | - |
| 1778224743 | 12.22° C | 80% | 1016.8 hPa | 0 mm | - | 0 W/m² | - |
| 1778224442 | 12.22° C | 81% | 1016.7 hPa | 0 mm | - | 0 W/m² | - |
* Rain latest hour (hover to see other rain measurements)
** Current wind speed in m/s (hover to see current wind gust speed)